This is the latest recevied weather packets stored in our database for station/object AD8IZ-13. If no packets are shown the sender has not sent any weather packets the latest 10 day(s).
| Time | Temp. | Humidity | Pressure | Rain* | Wind** | Luminosity | Snow |
|---|---|---|---|---|---|---|---|
| 1787407532 | 23.89° C | 85% | 1013.9 hPa | 0 mm | - | 279 W/m² | - |
| 1787406932 | 23.33° C | 85% | 1014 hPa | 0 mm | - | 142 W/m² | - |
| 1787406332 | 22.78° C | 86% | 1014.1 hPa | 0 mm | - | 101 W/m² | - |
| 1787405717 | 22.78° C | 87% | 1014.1 hPa | 0 mm | - | 98 W/m² | - |
| 1787405118 | 22.22° C | 88% | 1014.3 hPa | 0 mm | - | 101 W/m² | - |
| 1787404535 | 21.67° C | 89% | 1014.4 hPa | 0 mm | - | 99 W/m² | - |
| 1787403933 | 21.11° C | 91% | 1014.4 hPa | 0 mm | - | 91 W/m² | - |
| 1787403334 | 21.11° C | 92% | 1014.5 hPa | 0 mm | - | 84 W/m² | - |
| 1787402718 | 20.56° C | 93% | 1014.6 hPa | 0 mm | - | 101 W/m² | - |
| 1787402119 | 20° C | 96% | 1014.7 hPa | 0 mm | - | 102 W/m² | - |
| 1787401518 | 19.44° C | 98% | 1014.8 hPa | 0 mm | - | 104 W/m² | - |
| 1787400919 | 18.89° C | 98% | 1014.8 hPa | 0 mm | - | 74 W/m² | - |
| 1787400319 | 18.33° C | 98% | 1014.8 hPa | 0 mm | - | 54 W/m² | - |
| 1787399718 | 18.33° C | 98% | 1014.8 hPa | 0 mm | - | 46 W/m² | - |
| 1787399121 | 17.78° C | 98% | 1014.8 hPa | 0 mm | - | 40 W/m² | - |
| 1787398520 | 17.22° C | 98% | 1014.8 hPa | 0 mm | - | 33 W/m² | - |
| 1787397920 | 17.22° C | 98% | 1014.6 hPa | 0 mm | - | 23 W/m² | - |
| 1787397320 | 17.22° C | 98% | 1014.5 hPa | 0 mm | - | 16 W/m² | - |
| 1787396721 | 17.22° C | 98% | 1014.3 hPa | 0 mm | - | 9 W/m² | - |
| 1787396117 | 17.22° C | 98% | 1014.3 hPa | 0 mm | - | 4 W/m² | - |
| 1787395519 | 17.22° C | 98% | 1014.4 hPa | 0 mm | - | 1 W/m² | - |
| 1787394921 | 17.22° C | 98% | 1014.3 hPa | 0 mm | - | 0 W/m² | - |
| 1787394322 | 17.22° C | 98% | 1014.2 hPa | 0 mm | - | 0 W/m² | - |
| 1787393718 | 17.22° C | 98% | 1014.2 hPa | 0 mm | - | 0 W/m² | - |
| 1787393118 | 17.22° C | 98% | 1014.2 hPa | 0 mm | - | 0 W/m² | - |
* Rain latest hour (hover to see other rain measurements)
** Current wind speed in m/s (hover to see current wind gust speed)